Satellite: NOAA-11 Catalog number: 19531 Epoch time: 12332.48949114 Element set: 144 Inclination: 098.7258 deg RA of node: 054.1509 deg Eccentricity: 0.0011921 Arg of perigee: 115.5504 deg Mean anomaly: 244.6909 deg Mean motion: 14.14994483 rev/day Decay rate: 3.38e-06 rev/day^2 Epoch rev: 24760 Checksum: 303
Satellite: NOAA-12 Catalog number: 21263 Epoch time: 12332.51934410 Element set: 623 Inclination: 098.7168 deg RA of node: 353.3289 deg Eccentricity: 0.0014753 Arg of perigee: 085.8548 deg Mean anomaly: 274.4318 deg Mean motion: 14.25533651 rev/day Decay rate: 1.15e-06 rev/day^2 Epoch rev: 11982 Checksum: 298
Satellite: MET-3/5 Catalog number: 21655 Epoch time: 12331.79618013 Element set: 557 Inclination: 082.5577 deg RA of node: 037.3014 deg Eccentricity: 0.0012173 Arg of perigee: 274.8809 deg Mean anomaly: 085.0924 deg Mean motion: 13.17046633 rev/day Decay rate: -4.01e-06 rev/day^2 Epoch rev: 2329 Checksum: 287
Satellite: MET-2/21 Catalog number: 22782 Epoch time: 12331.27832558 Element set: 591 Inclination: 082.5473 deg RA of node: 263.8946 deg Eccentricity: 0.0024074 Arg of perigee: 060.0345 deg Mean anomaly: 300.3203 deg Mean motion: 13.83694636 rev/day Decay rate: 6.8e-07 rev/day^2 Epoch rev: 97158 Checksum: 308
Satellite: OKEAN-4 Catalog number: 23317 Epoch time: 12332.54858990 Element set: 66 Inclination: 082.5409 deg RA of node: 238.4372 deg Eccentricity: 0.0021176 Arg of perigee: 167.0705 deg Mean anomaly: 193.1059 deg Mean motion: 14.84136840 rev/day Decay rate: 1.226e-05 rev/day^2 Epoch rev: 97903 Checksum: 306
Satellite: NOAA-14 Catalog number: 23455 Epoch time: 12332.44764878 Element set: 106 Inclination: 098.8196 deg RA of node: 053.8224 deg Eccentricity: 0.0008803 Arg of perigee: 208.2720 deg Mean anomaly: 151.7975 deg Mean motion: 14.13883647 rev/day Decay rate: 4.5e-07 rev/day^2 Epoch rev: 92386 Checksum: 323
Satellite: NOAA-15 Catalog number: 25338 Epoch time: 12332.36406573 Element set: 501 Inclination: 098.7054 deg RA of node: 317.8738 deg Eccentricity: 0.0010698 Arg of perigee: 359.5325 deg Mean anomaly: 000.5855 deg Mean motion: 14.25152629 rev/day Decay rate: 2.82e-06 rev/day^2 Epoch rev: 75609 Checksum: 313
Satellite: RESURS Catalog number: 25394 Epoch time: 12332.17152263 Element set: 242 Inclination: 098.3366 deg RA of node: 311.9708 deg Eccentricity: 0.0002177 Arg of perigee: 102.8493 deg Mean anomaly: 257.2931 deg Mean motion: 14.24311096 rev/day Decay rate: 1.12e-06 rev/day^2 Epoch rev: 74760 Checksum: 274
Satellite: FENGYUN1 Catalog number: 25730 Epoch time: 12332.45657761 Element set: 748 Inclination: 098.8572 deg RA of node: 288.7319 deg Eccentricity: 0.0020504 Arg of perigee: 258.1782 deg Mean anomaly: 101.7087 deg Mean motion: 14.09887672 rev/day Decay rate: 1.924e-05 rev/day^2 Epoch rev: 69761 Checksum: 339
Satellite: OKEAN-0 Catalog number: 25860 Epoch time: 12332.08069680 Element set: 798 Inclination: 097.9594 deg RA of node: 291.6157 deg Eccentricity: 0.0001967 Arg of perigee: 071.9732 deg Mean anomaly: 288.1689 deg Mean motion: 14.74409493 rev/day Decay rate: 9.77e-06 rev/day^2 Epoch rev: 71857 Checksum: 367
Satellite: NOAA-16 Catalog number: 26536 Epoch time: 12332.21049584 Element set: 983 Inclination: 099.0742 deg RA of node: 016.6839 deg Eccentricity: 0.0010374 Arg of perigee: 349.2504 deg Mean anomaly: 010.8461 deg Mean motion: 14.12810573 rev/day Decay rate: 2.7e-07 rev/day^2 Epoch rev: 62805 Checksum: 292
Satellite: NOAA-17 Catalog number: 27453 Epoch time: 12332.26337432 Element set: 924 Inclination: 098.3246 deg RA of node: 350.9639 deg Eccentricity: 0.0012357 Arg of perigee: 042.2408 deg Mean anomaly: 317.9725 deg Mean motion: 14.24514142 rev/day Decay rate: 9.4e-07 rev/day^2 Epoch rev: 54197 Checksum: 302
Satellite: NOAA-18 Catalog number: 28654 Epoch time: 12332.29302126 Element set: 407 Inclination: 099.0694 deg RA of node: 291.9267 deg Eccentricity: 0.0015000 Arg of perigee: 057.7868 deg Mean anomaly: 302.4758 deg Mean motion: 14.11739151 rev/day Decay rate: 3.28e-06 rev/day^2 Epoch rev: 38757 Checksum: 316
Satellite: NOAA-19 Catalog number: 33591 Epoch time: 12332.26665848 Element set: 592 Inclination: 098.8803 deg RA of node: 270.1545 deg Eccentricity: 0.0013308 Arg of perigee: 281.8294 deg Mean anomaly: 078.1396 deg Mean motion: 14.11424178 rev/day Decay rate: 1.17e-06 rev/day^2 Epoch rev: 19601 Checksum: 315
/EX SB KEPS @ AMSAT $ORB12332.M Orbital Elements 12332.MISC
HR AMSAT ORBITAL ELEMENTS FOR MANNED AND MISCELLANEOUS SATELLITES FROM WA5QGD FORT WORTH,TX November 27, 2012 Send SUBSCRIBE KEPS/UNSUBSCRIBE KEPS to [email protected] only BID: ORB12332.M TO ALL RADIO AMATEURS BT
Satellite: HUBBLE Catalog number: 20580 Epoch time: 12331.56925383 Element set: 118 Inclination: 028.4690 deg RA of node: 160.5058 deg Eccentricity: 0.0002835 Arg of perigee: 347.7087 deg Mean anomaly: 012.3425 deg Mean motion: 15.03083745 rev/day Decay rate: 2.133e-05 rev/day^2 Epoch rev: 3917 Checksum: 274
Satellite: ISS Catalog number: 25544 Epoch time: 12332.58096921 Element set: 725 Inclination: 051.6494 deg RA of node: 029.8489 deg Eccentricity: 0.0015758 Arg of perigee: 335.7188 deg Mean anomaly: 174.8451 deg Mean motion: 15.51815547 rev/day Decay rate: 1.5694e-04 rev/day^2 Epoch rev: 80339 Checksum: 342
Satellite: CO-58 Catalog number: 28895 Epoch time: 12332.11165358 Element set: 337 Inclination: 097.8899 deg RA of node: 191.0251 deg Eccentricity: 0.0017916 Arg of perigee: 002.1956 deg Mean anomaly: 357.9298 deg Mean motion: 14.60870116 rev/day Decay rate: 9.57e-06 rev/day^2 Epoch rev: 37744 Checksum: 348
Satellite: FALCON Catalog number: 30776 Epoch time: 12331.51069655 Element set: 492 Inclination: 035.4336 deg RA of node: 004.4379 deg Eccentricity: 0.0002041 Arg of perigee: 310.3225 deg Mean anomaly: 049.7315 deg Mean motion: 15.08988279 rev/day Decay rate: 6.804e-05 rev/day^2 Epoch rev: 31477 Checksum: 293
Satellite: MAST Catalog number: 31126 Epoch time: 12332.01500594 Element set: 616 Inclination: 097.8744 deg RA of node: 333.6101 deg Eccentricity: 0.0093164 Arg of perigee: 323.8296 deg Mean anomaly: 035.6624 deg Mean motion: 14.54363153 rev/day Decay rate: 9.58e-06 rev/day^2 Epoch rev: 29793 Checksum: 295
Satellite: CAPE1 Catalog number: 31130 Epoch time: 12332.39092986 Element set: 628 Inclination: 097.8867 deg RA of node: 330.2845 deg Eccentricity: 0.0100770 Arg of perigee: 336.8730 deg Mean anomaly: 022.7969 deg Mean motion: 14.53209095 rev/day Decay rate: 1.370e-05 rev/day^2 Epoch rev: 29747 Checksum: 318
Satellite: COMPASS Catalog number: 32787 Epoch time: 12332.07205322 Element set: 474 Inclination: 097.7825 deg RA of node: 029.6886 deg Eccentricity: 0.0014030 Arg of perigee: 246.3927 deg Mean anomaly: 113.5837 deg Mean motion: 14.84725241 rev/day Decay rate: 3.564e-05 rev/day^2 Epoch rev: 24797 Checksum: 313
Satellite: AAUSAT2 Catalog number: 32788 Epoch time: 12332.13820776 Element set: 465 Inclination: 097.7813 deg RA of node: 030.2334 deg Eccentricity: 0.0013452 Arg of perigee: 241.9519 deg Mean anomaly: 118.0344 deg Mean motion: 14.85112412 rev/day Decay rate: 3.917e-05 rev/day^2 Epoch rev: 24801 Checksum: 279
Satellite: DO-64 Catalog number: 32789 Epoch time: 12332.13275139 Element set: 485 Inclination: 097.7950 deg RA of node: 032.9344 deg Eccentricity: 0.0013311 Arg of perigee: 241.1864 deg Mean anomaly: 118.8008 deg Mean motion: 14.87116084 rev/day Decay rate: 5.837e-05 rev/day^2 Epoch rev: 24808 Checksum: 315
Satellite: CO-66 Catalog number: 32791 Epoch time: 12331.52504843 Element set: 462 Inclination: 097.7799 deg RA of node: 028.7515 deg Eccentricity: 0.0014290 Arg of perigee: 246.7085 deg Mean anomaly: 113.2660 deg Mean motion: 14.84005481 rev/day Decay rate: 2.668e-05 rev/day^2 Epoch rev: 24781 Checksum: 318
Satellite: RS-30 Catalog number: 32953 Epoch time: 12332.11702827 Element set: 360 Inclination: 082.5018 deg RA of node: 193.8259 deg Eccentricity: 0.0018727 Arg of perigee: 316.1669 deg Mean anomaly: 043.7927 deg Mean motion: 12.43029955 rev/day Decay rate: 1.0e-07 rev/day^2 Epoch rev: 20480 Checksum: 289
Satellite: PHARMSAT Catalog number: 35002 Epoch time: 12226.86484473 Element set: 78 Inclination: 040.4341 deg RA of node: 050.6671 deg Eccentricity: 0.0012079 Arg of perigee: 300.9773 deg Mean anomaly: 059.0492 deg Mean motion: 16.39309245 rev/day Decay rate: 7.728342e-02 rev/day^2 Epoch rev: 18355 Checksum: 302
Satellite: METEOR-M Catalog number: 35865 Epoch time: 12332.26631284 Element set: 999 Inclination: 098.6337 deg RA of node: 023.3506 deg Eccentricity: 0.0002088 Arg of perigee: 320.9312 deg Mean anomaly: 039.1714 deg Mean motion: 14.21875386 rev/day Decay rate: -1.2e-07 rev/day^2 Epoch rev: 16577 Checksum: 301
Satellite: RS-38 Catalog number: 35869 Epoch time: 12332.19220499 Element set: 970 Inclination: 098.6285 deg RA of node: 023.2437 deg Eccentricity: 0.0004197 Arg of perigee: 310.3430 deg Mean anomaly: 049.7381 deg Mean motion: 14.22101872 rev/day Decay rate: 7.6e-07 rev/day^2 Epoch rev: 16578 Checksum: 310
Satellite: JUGNU Catalog number: 37839 Epoch time: 12331.55787686 Element set: 277 Inclination: 019.9558 deg RA of node: 094.5336 deg Eccentricity: 0.0018662 Arg of perigee: 211.3177 deg Mean anomaly: 148.6111 deg Mean motion: 14.12107556 rev/day Decay rate: 6.20e-06 rev/day^2 Epoch rev: 5822 Checksum: 308
Satellite: SRMSAT Catalog number: 37841 Epoch time: 12331.55070007 Element set: 279 Inclination: 019.9687 deg RA of node: 102.6471 deg Eccentricity: 0.0011985 Arg of perigee: 174.8046 deg Mean anomaly: 185.2537 deg Mean motion: 14.10183407 rev/day Decay rate: 2.64e-06 rev/day^2 Epoch rev: 5813 Checksum: 288
